Location: Brahman Valley
(40.6513°N, 111.8855°W)
Time: 07:48:27
(UTC+00:00)

Tiros 1 despin weight - Pass Details

Date: 13 May 2021
Orbit: 594 x 641 km, 48.2° (Epoch: 22 June)

Event Time Altitude Azimuth Distance (km) Brightness Sun altitude
Rises 04:31:20 0° 253° (WSW) 2,921 ? -18.6°
Reaches altitude 10° 04:33:41 10° 258° (WSW) 2,019 ? -18.9°
Maximum altitude 04:38:16 57° 337° (NNW) 756 ? -19.5°
Drops below altitude 10° 04:42:54 10° 57° (ENE) 2,033 ? -20.1°
Sets 04:45:17 0° 61° (ENE) 2,943 ? -20.4°
